TimeMST,TemperatureF,Dew PointF,Humidity,Sea Level PressureIn,VisibilityMPH,Wind Direction,Wind SpeedMPH,Gust SpeedMPH,PrecipitationIn,Events,Conditions,WindDirDegrees,DateUTC
12:53 AM,34.0,28.0,79,29.84,10.0,SW,5.8,-,N/A,,Clear,230,2013-12-22 07:53:00
1:53 AM,37.0,27.0,67,29.85,10.0,WNW,10.4,-,N/A,,Mostly Cloudy,300,2013-12-22 08:53:00
2:53 AM,36.0,27.0,70,29.88,10.0,West,9.2,-,N/A,,Partly Cloudy,280,2013-12-22 09:53:00
3:53 AM,33.1,27.0,78,29.91,10.0,West,9.2,-,N/A,,Clear,280,2013-12-22 10:53:00
4:53 AM,36.0,24.1,62,29.94,10.0,WNW,13.8,-,N/A,,Clear,300,2013-12-22 11:53:00
5:53 AM,35.1,23.0,61,29.98,10.0,WNW,15.0,-,N/A,,Clear,300,2013-12-22 12:53:00
6:53 AM,33.1,23.0,66,30.04,10.0,NNE,8.1,-,N/A,,Clear,20,2013-12-22 13:53:00
7:53 AM,36.0,23.0,59,30.06,10.0,WNW,12.7,-,N/A,,Partly Cloudy,300,2013-12-22 14:53:00
8:53 AM,37.9,21.9,53,30.08,10.0,NW,13.8,-,N/A,,Clear,310,2013-12-22 15:53:00
9:53 AM,41.0,21.9,47,30.10,10.0,NW,12.7,-,N/A,,Clear,310,2013-12-22 16:53:00
10:53 AM,43.0,21.0,42,30.12,10.0,WNW,15.0,19.6,N/A,,Clear,300,2013-12-22 17:53:00
11:53 AM,45.0,21.0,39,30.13,10.0,NW,12.7,19.6,N/A,,Clear,310,2013-12-22 18:53:00
12:53 PM,45.0,19.0,36,30.11,10.0,NW,11.5,17.3,N/A,,Clear,320,2013-12-22 19:53:00
1:53 PM,46.9,17.1,30,30.07,10.0,North,5.8,-,N/A,,Clear,350,2013-12-22 20:53:00
2:53 PM,46.9,17.1,30,30.08,10.0,Variable,4.6,-,N/A,,Clear,0,2013-12-22 21:53:00
3:53 PM,48.0,15.1,27,30.09,10.0,NW,4.6,-,N/A,,Clear,310,2013-12-22 22:53:00
4:53 PM,45.0,18.0,34,30.10,10.0,NNE,4.6,-,N/A,,Clear,30,2013-12-22 23:53:00
5:53 PM,41.0,19.9,43,30.14,10.0,Calm,Calm,-,N/A,,Clear,0,2013-12-23 00:53:00
6:53 PM,36.0,21.9,57,30.18,10.0,WNW,5.8,-,N/A,,Clear,290,2013-12-23 01:53:00
7:53 PM,35.1,24.1,64,30.19,10.0,WNW,6.9,-,N/A,,Clear,300,2013-12-23 02:53:00
8:53 PM,34.0,23.0,64,30.21,10.0,NW,8.1,-,N/A,,Clear,310,2013-12-23 03:53:00
9:53 PM,34.0,21.0,59,30.22,10.0,NW,8.1,-,N/A,,Clear,310,2013-12-23 04:53:00
10:53 PM,34.0,19.9,56,30.23,10.0,NW,9.2,-,N/A,,Clear,320,2013-12-23 05:53:00
11:53 PM,35.1,18.0,50,30.23,10.0,North,5.8,-,N/A,,Clear,350,2013-12-23 06:53:00